Showing default

SKYSAT C5, 41772

Orbit data source: Space-Track

SKYSAT C5, 41772 is a payload satellite owned by Terra Bella (US) in SSO that was launched on Fri, 16 Sep 2016 UTC via a VEGA launch vehicle from the French Guiana (FRGUI). Payload-class satellites include a variety of spacecraft equipped with specific instruments for various scientific and technological missions. These include communications satellites like Starlink; space stations such as the ISS; scientific satellites like the Hubble; Earth observation satellites from companies like Planet Labs, Umbra, and HawkEye 360; GPS; miniature CubeSats for education and research; and military/defense satellites.

Loading next visibility...
Identifier
41772, 2016-058C
Orbit
SSO
Country
Flag of USUS
Related business
Manufacturer
SS/Loral (MDA)
Mission
Operational Commercial Imaging
Bus & Motor
SKYSAT-GEN2, Unknown motor
Mass
110 kg wet, 110 kg dry
Launch date (UTC)
2016-09-16 (9 years ago)
Launch vehicle
VEGA
Launch site
French Guiana (FRGUI)
Object type
Payload
Rocket body
Debris
Shape & HBR
Box, 1.0 m
Radar Cross Section
0.888 m², Medium (>0.1 m² and < 1m²)

Expand to show TLE details & history
Last TLE update: 9 hours ago

TLE from 9 hours ago
0 SKYSAT C5
1 41772U 16058C   26036.66712620  .00015187  00000-0  46004-3 0  9997
2 41772  97.0667  83.1102 0004630 105.2627 254.9128 15.34231789523586
Epoch: 2026-02-05T16:00Z
TLE epoch observation values (Epoch: 2026-02-05T16:00:39.703Z)
Latitude
-0.00012°
Longitude
67.12872°
Altitude
467.148 km
Speed
7.632 km/s
True Right ascension
05h 32m 26s
True Declination
0° 00' 00"
Sunlit
Object was in full shadow at epoch
Visualization orbit readout
Latitude
Unknown
Longitude
Unknown
Altitude
Unknown
Speed
Unknown
Apparent Right ascension
Unknown
Apparent Declination
Unknown
Sunlit
N/A
Visualization observer readout
Local Sidereal Time
03:11:20
Azimuth
Unknown
Elevation
Unknown
Doppler factor
Unknown
Orbital elements
Apogee altitude
463.302 km
Perigee altitude
456.97 km
Semi-major axis
6,838.273 km
Eccentricity
0.00046
Inclination
97.0667°
RAAN
83.1102°
Arg. of periapsis
105.2627°
True anomaly
254.86158°
Mean anomaly
254.9128°
Eccentric anomaly
254.88719°
Mean motion
3.83816 °/min
Orbital period
93.79 mins
BSTAR
0.00046004
Loading maneuver chart data...
Computing Atmospheric mass density...
Loading historical data...
Loading historical data...
Loading historical data...
Loading historical data...
Loading historical data...
Loading historical data...
Loading historical data...

Documentation

Showing up to 5 results
|